This demonstration page uses our WeatherBlox Daily Observations layout. Learn more.

Left ArrowRight Arrow

53.62937, 11.41316

Hourly Observations for January 1, 2022

Temp ( °F °C ) Dew Point ( °F °C ) Humidity (%) Winds ( mph kmh ) Pressure ( in mb ) Visibility ( mi km ) Precip ( " mm )
12:20 am 00:20 Cloudy 52 11 50 10 94 94 W 10 17 30.00 1016 30 48 N/A
12:50 am 00:50 Cloudy 52 11 50 10 94 94 W 12 19 30.00 1016 30 48 N/A
1:20 am 01:20 Cloudy 52 11 50 10 94 94 W 12 19 30.00 1016 30 48 N/A
1:50 am 01:50 Cloudy 52 11 50 10 94 94 W 14 22 30.03 1017 30 48 N/A
2:20 am 02:20 Cloudy 52 11 48 9 88 88 W 12 19 30.03 1017 30 48 N/A
2:50 am 02:50 Cloudy 52 11 48 9 88 88 W 10 17 30.03 1017 30 48 N/A
3:20 am 03:20 Cloudy 52 11 48 9 88 88 W 10 17 30.03 1017 30 48 N/A
3:50 am 03:50 Mostly Cloudy 52 11 48 9 88 88 W 9 15 30.03 1017 30 48 N/A
4:20 am 04:20 Mostly Cloudy 52 11 48 9 88 88 WSW 9 15 30.06 1018 30 48 N/A
4:50 am 04:50 Cloudy 52 11 50 10 94 94 W 9 15 30.06 1018 30 48 N/A
5:20 am 05:20 Cloudy 52 11 50 10 94 94 W 10 17 30.06 1018 30 48 N/A
5:50 am 05:50 Cloudy 52 11 50 10 94 94 W 10 17 30.06 1018 30 48 N/A
6:20 am 06:20 Cloudy 52 11 50 10 94 94 W 12 19 30.09 1019 30 48 N/A
6:50 am 06:50 Cloudy 52 11 50 10 94 94 W 10 17 30.09 1019 30 48 N/A
7:20 am 07:20 Cloudy 52 11 50 10 94 94 W 13 20 30.09 1019 30 48 N/A
7:50 am 07:50 Cloudy 52 11 50 10 94 94 W 12 19 30.09 1019 30 48 N/A
8:20 am 08:20 Cloudy 52 11 50 10 94 94 W 10 17 30.12 1020 30 48 N/A
8:50 am 08:50 Cloudy 52 11 50 10 94 94 W 10 17 30.12 1020 30 48 N/A
9:20 am 09:20 Cloudy 52 11 50 10 94 94 W 10 17 30.15 1021 30 48 N/A
9:50 am 09:50 Mostly Cloudy 52 11 50 10 94 94 W 8 13 30.15 1021 30 48 N/A
10:20 am 10:20 Cloudy 52 11 50 10 94 94 WSW 8 13 30.15 1021 30 48 N/A
10:50 am 10:50 Cloudy 52 11 50 10 94 94 WSW 8 13 30.15 1021 30 48 N/A
11:20 am 11:20 Mostly Cloudy 52 11 50 10 94 94 WSW 6 9 30.18 1022 6 9 N/A
11:50 am 11:50 Cloudy 52 11 50 10 94 94 WSW 7 11 30.18 1022 4 7 N/A
12:20 pm 12:20 Cloudy 52 11 50 10 94 94 WSW 7 11 30.18 1022 4 6 N/A
12:50 pm 12:50 Cloudy 52 11 50 10 94 94 WSW 7 11 30.15 1021 4 6 N/A
1:20 pm 13:20 Cloudy 52 11 50 10 94 94 WSW 8 13 30.15 1021 3 5 N/A
1:50 pm 13:50 Cloudy 54 12 50 10 88 88 SW 5 7 30.12 1020 4 7 N/A
2:20 pm 14:20 Mostly Cloudy 54 12 50 10 88 88 VRB 3 6 30.15 1021 4 7 N/A
2:50 pm 14:50 Mostly Cloudy 54 12 50 10 88 88 VRB 3 6 30.15 1021 30 48 N/A
3:20 pm 15:20 Mostly Cloudy 54 12 50 10 88 88 VRB 6 9 30.15 1021 2 4 N/A
3:50 pm 15:50 Mostly Cloudy 52 11 52 11 100 100 S 3 6 30.15 1021 3 5 N/A
4:20 pm 16:20 Cloudy 52 11 52 11 100 100 SSW 3 6 30.15 1021 4 6 N/A
4:50 pm 16:50 Mostly Cloudy 52 11 52 11 100 100 S 5 7 30.12 1020 4 6 N/A
5:20 pm 17:20 Mostly Cloudy 52 11 52 11 100 100 S 5 7 30.12 1020 4 6 N/A
5:50 pm 17:50 Mostly Cloudy 52 11 52 11 100 100 S 5 7 30.12 1020 3 5 N/A
6:20 pm 18:20 Mostly Cloudy 54 12 52 11 94 94 VRB 3 6 30.12 1020 4 7 N/A
6:50 pm 18:50 Mostly Cloudy 54 12 52 11 94 94 S 6 9 30.09 1019 30 48 N/A
7:20 pm 19:20 Cloudy 54 12 50 10 88 88 S 5 7 30.09 1019 30 48 N/A
7:50 pm 19:50 Mostly Cloudy 54 12 50 10 88 88 VRB 5 7 30.09 1019 30 48 N/A
8:20 pm 20:20 Mostly Cloudy 54 12 50 10 88 88 VRB 6 9 30.06 1018 30 48 N/A
8:50 pm 20:50 Partly Cloudy 54 12 50 10 88 88 VRB 7 11 30.06 1018 30 48 N/A
9:20 pm 21:20 Mostly Clear 54 12 50 10 88 88 VRB 7 11 30.06 1018 30 48 N/A
9:50 pm 21:50 Mostly Clear 54 12 50 10 88 88 S 7 11 30.03 1017 30 48 N/A
10:20 pm 22:20 Mostly Clear 54 12 48 9 82 82 SSW 7 11 30.03 1017 30 48 N/A
10:50 pm 22:50 Mostly Clear 52 11 48 9 88 88 VRB 6 9 30.03 1017 30 48 N/A
11:20 pm 23:20 Mostly Clear 54 12 48 9 82 82 SSW 6 9 30.00 1016 30 48 N/A
11:50 pm 23:50 Mostly Clear 52 11 48 9 88 88 VRB 3 6 30.03 1017 30 48 N/A

Powered by AerisWeather